Weather History for Kaneohe MCBH, HI

Change the Weather History Date:

Friday, February 15, 2013

  Actual Average Record
Temperature  
Mean Temperature 74 °F -  
Max Temperature 80 °F 75 °F 82 °F (2004)
Min Temperature 69 °F 67 °F 66 °F (1998)
Cooling Degree Days 10    
Growing Degree Days 24 (Base 50)    
Moisture  
Dew Point 62 °F    
Average Humidity 67    
Maximum Humidity 78    
Minimum Humidity 53    
Precipitation  
Precipitation 0.00 in - - ()
Sea Level Pressure  
Sea Level Pressure 30.07 in    
Wind  
Wind Speed 10 mph (East)    
Max Wind Speed 16 mph    
Max Gust Speed 26 mph    
Visibility 10 miles    
Events Rain    
Averages and records for this station are not official NWS values.
T = Trace of Precipitation, MM = Missing Value Source: NWS Daily Summary

Daily Weather History Graph

Daily Weather History Graph

Search for Another Location

Airport:

Trip Planner

Search our weather history database for the weather conditions in past years. The results will help you decide how hot, cold, wet, or windy it might be!

Date:

Astronomy

Feb. 15, 2013 Rise Set
Actual Time 7:01 AM HST 6:29 PM HST
Civil Twilight 6:38 AM HST 6:51 PM HST
Nautical Twilight 6:12 AM HST 7:18 PM HST
Astronomical Twilight 5:46 AM HST 7:44 PM HST
Moon 10:33 AM HST (2/15) 11:47 PM HST (2/15)
Length of Visible Light 12h 13m
Length of Day
11h 27m
Waxing Crescent, 32% of the Moon is Illuminated
Feb 15
Waxing Crescent
Feb 17
First Quarter
Feb 25
Full
Mar 4
Last Quarter
Mar 11
New

Hourly Weather History & Observations

Time (HST) Temp. Heat Index Dew Point Humidity Pressure Visibility Wind Dir Wind Speed Gust Speed Precip Events Conditions
12:57 AM 71.6 °F - 60.1 °F 67% 30.07 in 10.0 mi ENE 10.4 mph 18.4 mph N/A   Partly Cloudy
1:57 AM 71.6 °F - 60.1 °F 67% 30.06 in 10.0 mi East 5.8 mph - 0.00 in   Mostly Cloudy
2:57 AM 71.6 °F - 61.0 °F 69% 30.04 in 10.0 mi ENE 6.9 mph 16.1 mph 0.00 in   Clear
3:57 AM 69.8 °F - 60.8 °F 73% 30.04 in 10.0 mi ENE 11.5 mph 16.1 mph N/A   Overcast
4:57 AM 69.8 °F - 61.0 °F 73% 30.03 in 10.0 mi ENE 12.7 mph 20.7 mph N/A   Clear
5:57 AM 69.8 °F - 57.9 °F 66% 30.04 in 10.0 mi ENE 12.7 mph 19.6 mph N/A   Partly Cloudy
6:57 AM 69.8 °F - 59.0 °F 68% 30.05 in 10.0 mi East 8.1 mph - N/A   Scattered Clouds
7:57 AM 69.8 °F - 59.0 °F 68% 30.06 in 10.0 mi East 10.4 mph 16.1 mph N/A   Scattered Clouds
8:57 AM 71.6 °F - 62.1 °F 72% 30.08 in 10.0 mi East 13.8 mph - N/A   Scattered Clouds
9:57 AM 73.4 °F - 61.0 °F 65% 30.09 in 10.0 mi East 12.7 mph 17.3 mph N/A   Partly Cloudy
10:57 AM 75.2 °F - 61.0 °F 61% 30.09 in 10.0 mi East 12.7 mph 19.6 mph N/A   Scattered Clouds
11:57 AM 76.3 °F - 60.1 °F 57% 30.07 in 10.0 mi East 8.1 mph 18.4 mph N/A   Mostly Cloudy
12:57 PM 78.8 °F - 61.0 °F 54% 30.06 in 10.0 mi East 8.1 mph - N/A   Overcast
1:57 PM 78.8 °F - 60.1 °F 53% 30.04 in 10.0 mi East 10.4 mph 19.6 mph N/A   Mostly Cloudy
2:57 PM 80.6 °F 82.2 °F 64.0 °F 57% 30.03 in 10.0 mi East 9.2 mph 18.4 mph N/A   Mostly Cloudy
3:48 PM 78.8 °F - 64.4 °F 61% 30.05 in 6.2 mi ENE 9.2 mph 16.1 mph N/A   Overcast
3:57 PM 79.3 °F - 64.0 °F 59% 30.04 in 10.0 mi ENE 9.2 mph 17.3 mph N/A   Overcast
4:16 PM - - - N/A% - - North - - N/A   Unknown
4:57 PM 77.0 °F - 66.0 °F 69% 30.05 in 10.0 mi East 8.1 mph - N/A   Overcast
5:57 PM 75.2 °F - 64.9 °F 70% 30.06 in 10.0 mi East 11.5 mph - N/A   Overcast
6:54 PM 75.2 °F - 64.4 °F 69% 30.09 in 6.2 mi East 12.7 mph 21.9 mph N/A   Overcast
6:57 PM 75.2 °F - 64.9 °F 70% 30.08 in 10.0 mi East 9.2 mph 21.9 mph N/A   Overcast
7:57 PM 74.8 °F - 64.0 °F 69% 30.10 in 10.0 mi East 11.5 mph 23.0 mph N/A   Overcast
8:57 PM 73.4 °F - 63.0 °F 70% 30.12 in 10.0 mi East 11.5 mph 18.4 mph N/A   Mostly Cloudy
9:00 PM - - - N/A% - - North - - N/A   Unknown
9:24 PM 71.6 °F - 64.4 °F 78% 30.13 in 6.2 mi ENE 12.7 mph 18.4 mph N/A   Overcast
9:57 PM 71.6 °F - 64.0 °F 77% 30.12 in 10.0 mi ENE 16.1 mph 20.7 mph N/A   Mostly Cloudy
10:57 PM 71.6 °F - 64.0 °F 77% 30.12 in 10.0 mi East 12.7 mph 19.6 mph N/A   Mostly Cloudy
11:57 PM 71.6 °F - 64.0 °F 77% 30.13 in 10.0 mi East 15.0 mph 26.5 mph 0.00 in Rain Rain